User: anonymous   Login
Location: Unspecified
(0.0000°N, 0.0000°E)
Time: 13:44:11
(UTC+00:00)
Language:

POLYITAN 1 - Orbit

View from above orbital plane
View from above orbital plane
View from above satellite
View from above satellite

Ground track
Ground track

The orbit data is extracted from the following two-line orbital elements,

1 40042U 14033AJ  17114.86135912 +.00000975 +00000-0 +11215-3 0  9994
2 40042 097.9229 025.9997 0016228 106.4506 253.8495 14.88002336153989
Epoch (UTC): 24 April 2017 20:40:21
Eccentricity: 0.0016228
inclination: 97.9229°
perigee height: 593 km
apogee height: 615 km
right ascension of ascending node: 25.9997°
argument of perigee: 106.4506°
revolutions per day: 14.88002336
mean anomaly at epoch: 253.8495°
orbit number at epoch: 15398

The dashed part of the orbit path shows where the satellite is in the earth's shadow,  

DLR